"datetime","temp","dp","rain_mm","uv","solar","mb","wind_mph","gust_mph","windchill","rh"
"2023-08-11 00:00:00",16.2,14.9,0.0,0.0,0,1016.9,0,1,"",92
"2023-08-11 00:01:00",16.1,14.8,0.0,0.0,0,1016.9,1,1,"",92
"2023-08-11 00:02:00",16.1,14.8,0.0,0.0,0,1017.0,1,1,"",92
"2023-08-11 00:03:00",16.1,14.8,0.0,0.0,0,1017.0,1,1,"",92
"2023-08-11 00:04:00",16.1,14.8,0.0,0.0,0,1017.0,0,1,"",92
"2023-08-11 00:05:00",16.1,14.8,0.0,0.0,0,1017.0,0,1,"",92
"2023-08-11 00:06:00",16.1,14.8,0.0,0.0,0,1016.9,1,2,"",92
"2023-08-11 00:07:00",16.1,14.8,0.0,0.0,0,1016.9,1,1,"",92
"2023-08-11 00:08:00",16.1,14.8,0.0,0.0,0,1016.9,1,1,"",92
"2023-08-11 00:09:00",16.1,14.8,0.0,0.0,0,1016.9,0,1,"",92
"2023-08-11 00:10:00",16.1,14.8,0.0,0.0,0,1016.9,0,1,"",92
"2023-08-11 00:11:00",16.0,14.7,0.0,0.0,0,1016.9,1,1,"",92
"2023-08-11 00:12:00",16.0,14.7,0.0,0.0,0,1016.9,0,1,"",92
"2023-08-11 00:13:00",16.0,14.7,0.0,0.0,0,1016.9,1,2,"",92
"2023-08-11 00:14:00",16.0,14.9,0.0,0.0,0,1016.8,1,1,"",93
"2023-08-11 00:15:00",16.0,14.9,0.0,0.0,0,1016.8,1,1,"",93
"2023-08-11 00:16:00",16.1,15.0,0.0,0.0,0,1016.9,1,2,"",93
"2023-08-11 00:17:00",16.1,15.0,0.0,0.0,0,1016.9,1,2,"",93
"2023-08-11 00:18:00",16.0,14.9,0.0,0.0,0,1016.9,1,2,"",93
"2023-08-11 00:19:00",16.1,15.0,0.0,0.0,0,1016.9,1,2,"",93
"2023-08-11 00:20:00",16.0,14.9,0.0,0.0,0,1017.0,1,2,"",93
"2023-08-11 00:21:00",16.0,14.9,0.0,0.0,0,1017.0,1,2,"",93
"2023-08-11 00:22:00",15.9,14.8,0.0,0.0,0,1017.0,1,2,"",93
"2023-08-11 00:23:00",15.9,14.8,0.0,0.0,0,1017.0,1,2,"",93
"2023-08-11 00:24:00",15.9,14.8,0.0,0.0,0,1017.0,1,2,"",93
"2023-08-11 00:25:00",15.9,14.8,0.0,0.0,0,1017.0,1,2,"",93
"2023-08-11 00:26:00",15.9,14.8,0.0,0.0,0,1017.0,1,2,"",93
"2023-08-11 00:27:00",15.8,14.7,0.0,0.0,0,1017.0,1,2,"",93
"2023-08-11 00:28:00",15.8,14.7,0.0,0.0,0,1017.0,1,2,"",93
"2023-08-11 00:29:00",15.9,14.8,0.0,0.0,0,1017.0,1,2,"",93
"2023-08-11 00:30:00",15.9,14.8,0.0,0.0,0,1017.0,1,2,"",93
"2023-08-11 00:31:00",15.9,14.8,0.0,0.0,0,1017.0,1,2,"",93
"2023-08-11 00:32:00",15.9,14.8,0.0,0.0,0,1017.0,1,2,"",93
"2023-08-11 00:33:00",15.9,14.8,0.0,0.0,0,1017.0,1,2,"",93
"2023-08-11 00:34:00",15.9,14.8,0.0,0.0,0,1017.0,1,2,"",93
"2023-08-11 00:35:00",15.8,14.7,0.0,0.0,0,1017.0,1,2,"",93
"2023-08-11 00:36:00",15.9,14.8,0.0,0.0,0,1017.0,1,2,"",93
"2023-08-11 00:37:00",15.9,14.8,0.0,0.0,0,1017.0,1,3,"",93
"2023-08-11 00:38:00",15.9,14.8,0.0,0.0,0,1017.0,2,4,"",93
"2023-08-11 00:39:00",16.0,14.9,0.0,0.0,0,1016.9,1,2,"",93
"2023-08-11 00:40:00",16.0,14.9,0.0,0.0,0,1017.0,1,3,"",93
"2023-08-11 00:41:00",16.1,15.0,0.0,0.0,0,1017.0,1,2,"",93
"2023-08-11 00:42:00",16.1,15.0,0.0,0.0,0,1017.0,0,1,"",93
"2023-08-11 00:43:00",16.1,15.0,0.0,0.0,0,1017.0,1,1,"",93
"2023-08-11 00:44:00",16.1,15.0,0.0,0.0,0,1017.0,1,3,"",93
"2023-08-11 00:45:00",16.1,15.0,0.0,0.0,0,1017.0,1,1,"",93
"2023-08-11 00:46:00",16.1,15.0,0.0,0.0,0,1017.1,1,1,"",93
"2023-08-11 00:47:00",16.1,15.0,0.0,0.0,0,1017.1,1,1,"",93
"2023-08-11 00:48:00",16.1,15.0,0.0,0.0,0,1017.0,1,1,"",93
"2023-08-11 00:49:00",16.1,15.0,0.0,0.0,0,1017.1,1,2,"",93
"2023-08-11 00:50:00",16.1,15.0,0.0,0.0,0,1017.0,1,2,"",93
"2023-08-11 00:51:00",16.1,15.0,0.0,0.0,0,1017.0,1,3,"",93
"2023-08-11 00:52:00",16.1,15.0,0.0,0.0,0,1017.0,0,1,"",93
"2023-08-11 00:53:00",16.2,15.1,0.0,0.0,0,1017.0,1,1,"",93
"2023-08-11 00:54:00",16.2,15.1,0.0,0.0,0,1017.0,1,2,"",93
"2023-08-11 00:55:00",16.1,15.0,0.0,0.0,0,1017.0,0,1,"",93
"2023-08-11 00:56:00",16.1,15.0,0.0,0.0,0,1017.0,1,1,"",93
"2023-08-11 00:57:00",16.1,15.0,0.0,0.0,0,1017.0,1,2,"",93
"2023-08-11 00:58:00",16.1,15.0,0.0,0.0,0,1017.0,1,2,"",93
"2023-08-11 00:59:00",16.2,15.1,0.0,0.0,0,1017.0,1,2,"",93
"2023-08-11 01:00:00",16.2,15.1,0.0,0.0,0,1016.9,1,1,"",93
"2023-08-11 01:01:00",16.2,15.1,0.0,0.0,0,1016.9,1,2,"",93
"2023-08-11 01:02:00",16.2,15.1,0.0,0.0,0,1017.0,1,1,"",93
"2023-08-11 01:03:00",16.2,15.1,0.0,0.0,0,1017.0,0,1,"",93
"2023-08-11 01:04:00",16.2,15.1,0.0,0.0,0,1017.0,0,1,"",93
"2023-08-11 01:05:00",16.2,15.1,0.0,0.0,0,1017.0,0,1,"",93
"2023-08-11 01:06:00",16.2,15.1,0.0,0.0,0,1017.0,0,0,"",93
"2023-08-11 01:07:00",16.2,15.1,0.0,0.0,0,1017.0,0,1,"",93
"2023-08-11 01:08:00",16.2,15.1,0.0,0.0,0,1017.0,0,1,"",93
"2023-08-11 01:09:00",16.2,15.1,0.0,0.0,0,1017.0,1,1,"",93
"2023-08-11 01:10:00",16.2,15.1,0.0,0.0,0,1017.0,1,1,"",93
"2023-08-11 01:11:00",16.2,15.1,0.0,0.0,0,1017.0,1,2,"",93
"2023-08-11 01:12:00",16.2,15.1,0.0,0.0,0,1017.0,2,3,"",93
"2023-08-11 01:13:00",16.3,15.2,0.0,0.0,0,1016.9,1,2,"",93
"2023-08-11 01:14:00",16.3,15.2,0.0,0.0,0,1016.9,1,2,"",93
"2023-08-11 01:15:00",16.3,15.2,0.0,0.0,0,1016.9,1,2,"",93
"2023-08-11 01:16:00",16.4,15.3,0.0,0.0,0,1016.9,1,1,"",93
"2023-08-11 01:17:00",16.4,15.3,0.0,0.0,0,1016.9,1,2,"",93
"2023-08-11 01:18:00",16.4,15.3,0.0,0.0,0,1016.8,2,3,"",93
"2023-08-11 01:19:00",16.4,15.3,0.0,0.0,0,1016.9,1,2,"",93
"2023-08-11 01:20:00",16.4,15.3,0.0,0.0,0,1016.9,1,1,"",93
"2023-08-11 01:21:00",16.4,15.3,0.0,0.0,0,1016.9,1,2,"",93
"2023-08-11 01:22:00",16.4,15.3,0.0,0.0,0,1016.8,1,3,"",93
"2023-08-11 01:23:00",16.4,15.3,0.0,0.0,0,1016.8,1,2,"",93
"2023-08-11 01:24:00",16.4,15.3,0.0,0.0,0,1016.8,0,1,"",93
"2023-08-11 01:25:00",16.4,15.3,0.0,0.0,0,1016.8,1,1,"",93
"2023-08-11 01:26:00",16.4,15.3,0.0,0.0,0,1016.8,1,1,"",93
"2023-08-11 01:27:00",16.4,15.3,0.0,0.0,0,1016.8,1,2,"",93
"2023-08-11 01:28:00",16.4,15.3,0.0,0.0,0,1016.8,1,2,"",93
"2023-08-11 01:29:00",16.4,15.3,0.0,0.0,0,1016.8,1,2,"",93
"2023-08-11 01:30:00",16.4,15.3,0.0,0.0,0,1016.8,1,1,"",93
"2023-08-11 01:31:00",16.4,15.3,0.0,0.0,0,1016.8,1,1,"",93
"2023-08-11 01:32:00",16.4,15.3,0.0,0.0,0,1016.8,1,2,"",93
"2023-08-11 01:33:00",16.4,15.3,0.0,0.0,0,1016.8,1,1,"",93
"2023-08-11 01:34:00",16.4,15.3,0.0,0.0,0,1016.7,1,2,"",93
"2023-08-11 01:35:00",16.4,15.3,0.0,0.0,0,1016.8,0,1,"",93
"2023-08-11 01:36:00",16.4,15.3,0.0,0.0,0,1016.8,0,2,"",93
"2023-08-11 01:37:00",16.4,15.3,0.0,0.0,0,1016.8,1,2,"",93
"2023-08-11 01:38:00",16.4,15.3,0.0,0.0,0,1016.7,0,1,"",93
"2023-08-11 01:39:00",16.4,15.3,0.0,0.0,0,1016.8,0,1,"",93
"2023-08-11 01:40:00",16.4,15.3,0.0,0.0,0,1016.7,2,4,"",93
"2023-08-11 01:41:00",16.4,15.3,0.0,0.0,0,1016.7,1,2,"",93
"2023-08-11 01:42:00",16.4,15.3,0.0,0.0,0,1016.7,2,2,"",93
"2023-08-11 01:43:00",16.4,15.3,0.0,0.0,0,1016.7,1,2,"",93
"2023-08-11 01:44:00",16.4,15.3,0.0,0.0,0,1016.6,1,2,"",93
"2023-08-11 01:45:00",16.4,15.3,0.0,0.0,0,1016.7,1,1,"",93
"2023-08-11 01:46:00",16.4,15.3,0.0,0.0,0,1016.7,2,4,"",93
"2023-08-11 01:47:00",16.6,15.6,0.0,0.0,0,1016.6,2,3,"",94
"2023-08-11 01:48:00",16.7,15.7,0.0,0.0,0,1016.6,1,2,"",94
"2023-08-11 01:49:00",16.7,15.7,0.0,0.0,0,1016.6,1,2,"",94
"2023-08-11 01:50:00",16.7,15.7,0.0,0.0,0,1016.6,1,1,"",94
"2023-08-11 01:51:00",16.7,15.6,0.0,0.0,0,1016.6,1,1,"",93
"2023-08-11 01:52:00",16.7,15.7,0.0,0.0,0,1016.6,1,1,"",94
"2023-08-11 01:53:00",16.8,15.8,0.0,0.0,0,1016.6,1,2,"",94
"2023-08-11 01:54:00",16.7,15.7,0.0,0.0,0,1016.6,0,1,"",94
"2023-08-11 01:55:00",16.7,15.6,0.0,0.0,0,1016.6,0,1,"",93
"2023-08-11 01:56:00",16.7,15.6,0.0,0.0,0,1016.6,0,1,"",93
"2023-08-11 01:57:00",16.7,15.6,0.0,0.0,0,1016.6,0,1,"",93
"2023-08-11 01:58:00",16.7,15.6,0.0,0.0,0,1016.6,0,1,"",93
"2023-08-11 01:59:00",16.7,15.7,0.0,0.0,0,1016.5,0,1,"",94
"2023-08-11 02:00:00",16.7,15.7,0.0,0.0,0,1016.6,1,1,"",94
"2023-08-11 02:01:00",16.7,15.6,0.0,0.0,0,1016.5,0,1,"",93
"2023-08-11 02:02:00",16.7,15.6,0.0,0.0,0,1016.6,0,1,"",93
"2023-08-11 02:03:00",16.8,15.8,0.0,0.0,0,1016.5,0,1,"",94
"2023-08-11 02:04:00",16.8,15.7,0.0,0.0,0,1016.6,0,1,"",93
"2023-08-11 02:05:00",16.8,15.8,0.0,0.0,0,1016.6,0,1,"",94
"2023-08-11 02:06:00",16.8,15.7,0.0,0.0,0,1016.5,0,1,"",93
"2023-08-11 02:07:00",16.8,15.7,0.0,0.0,0,1016.5,1,2,"",93
"2023-08-11 02:08:00",16.8,15.7,0.0,0.0,0,1016.5,0,1,"",93
"2023-08-11 02:09:00",16.8,15.7,0.0,0.0,0,1016.5,0,1,"",93
"2023-08-11 02:10:00",16.8,15.7,0.0,0.0,0,1016.5,0,0,"",93
"2023-08-11 02:11:00",16.8,15.7,0.0,0.0,0,1016.5,0,1,"",93
"2023-08-11 02:12:00",16.8,15.7,0.0,0.0,0,1016.4,1,2,"",93
"2023-08-11 02:13:00",16.8,15.7,0.0,0.0,0,1016.4,1,2,"",93
"2023-08-11 02:14:00",16.9,15.8,0.0,0.0,0,1016.4,1,1,"",93
"2023-08-11 02:15:00",16.9,15.8,0.0,0.0,0,1016.5,0,2,"",93
"2023-08-11 02:16:00",16.9,15.8,0.0,0.0,0,1016.4,1,2,"",93
"2023-08-11 02:17:00",16.9,15.8,0.0,0.0,0,1016.4,0,1,"",93
"2023-08-11 02:18:00",16.9,15.8,0.0,0.0,0,1016.4,1,2,"",93
"2023-08-11 02:19:00",16.9,15.8,0.0,0.0,0,1016.4,0,1,"",93
"2023-08-11 02:20:00",16.9,15.8,0.0,0.0,0,1016.4,0,1,"",93
"2023-08-11 02:21:00",17.0,15.9,0.0,0.0,0,1016.4,0,1,"",93
"2023-08-11 02:22:00",17.0,16.0,0.0,0.0,0,1016.4,1,1,"",94
"2023-08-11 02:23:00",17.0,16.0,0.0,0.0,0,1016.4,1,1,"",94
"2023-08-11 02:24:00",17.0,16.0,0.0,0.0,0,1016.4,0,1,"",94
"2023-08-11 02:25:00",17.0,16.0,0.0,0.0,0,1016.4,1,2,"",94
"2023-08-11 02:26:00",17.0,16.0,0.0,0.0,0,1016.3,1,1,"",94
"2023-08-11 02:27:00",17.0,16.0,0.0,0.0,0,1016.3,1,1,"",94
"2023-08-11 02:28:00",17.0,16.0,0.0,0.0,0,1016.3,0,1,"",94
"2023-08-11 02:29:00",17.0,16.0,0.0,0.0,0,1016.3,1,2,"",94
"2023-08-11 02:30:00",17.0,16.0,0.0,0.0,0,1016.2,0,1,"",94
"2023-08-11 02:31:00",17.1,16.1,0.0,0.0,0,1016.2,1,2,"",94
"2023-08-11 02:32:00",17.1,16.1,0.0,0.0,0,1016.2,0,1,"",94
"2023-08-11 02:33:00",17.1,16.1,0.0,0.0,0,1016.2,1,2,"",94
"2023-08-11 02:34:00",17.1,16.1,0.0,0.0,0,1016.2,1,2,"",94
"2023-08-11 02:35:00",17.1,16.1,0.0,0.0,0,1016.2,0,1,"",94
"2023-08-11 02:36:00",17.1,16.1,0.0,0.0,0,1016.2,1,2,"",94
"2023-08-11 02:37:00",17.2,16.2,0.0,0.0,0,1016.2,2,2,"",94
"2023-08-11 02:38:00",17.2,16.2,0.0,0.0,0,1016.2,1,2,"",94
"2023-08-11 02:39:00",17.2,16.1,0.0,0.0,0,1016.1,1,2,"",93
"2023-08-11 02:40:00",17.3,16.2,0.0,0.0,0,1016.1,1,3,"",93
"2023-08-11 02:41:00",17.2,16.1,0.0,0.0,0,1016.1,1,2,"",93
"2023-08-11 02:42:00",17.2,16.1,0.0,0.0,0,1016.1,1,2,"",93
"2023-08-11 02:43:00",17.2,16.1,0.0,0.0,0,1016.1,2,5,"",93
"2023-08-11 02:44:00",17.2,16.1,0.0,0.0,0,1016.1,1,2,"",93
"2023-08-11 02:45:00",17.2,16.1,0.0,0.0,0,1016.1,1,3,"",93
"2023-08-11 02:46:00",17.3,16.2,0.0,0.0,0,1016.1,2,3,"",93
"2023-08-11 02:47:00",17.3,16.2,0.0,0.0,0,1016.2,1,2,"",93
"2023-08-11 02:48:00",17.3,16.2,0.0,0.0,0,1016.1,2,4,"",93
"2023-08-11 02:49:00",17.3,16.2,0.0,0.0,0,1016.1,1,3,"",93
"2023-08-11 02:50:00",17.3,16.2,0.0,0.0,0,1016.1,2,3,"",93
"2023-08-11 02:51:00",17.4,16.4,0.0,0.0,0,1016.1,1,2,"",94
"2023-08-11 02:52:00",17.4,16.4,0.0,0.0,0,1016.1,1,2,"",94
"2023-08-11 02:53:00",17.4,16.3,0.0,0.0,0,1016.1,2,4,"",93
"2023-08-11 02:54:00",17.4,16.3,0.0,0.0,0,1016.2,1,3,"",93
"2023-08-11 02:55:00",17.4,16.3,0.0,0.0,0,1016.1,1,2,"",93
"2023-08-11 02:56:00",17.4,16.3,0.0,0.0,0,1016.1,1,2,"",93
"2023-08-11 02:57:00",17.4,16.3,0.0,0.0,0,1016.1,2,3,"",93
"2023-08-11 02:58:00",17.4,16.3,0.0,0.0,0,1016.1,1,2,"",93
"2023-08-11 02:59:00",17.4,16.3,0.0,0.0,0,1016.2,1,2,"",93
"2023-08-11 03:00:00",17.4,16.3,0.0,0.0,0,1016.2,1,3,"",93
"2023-08-11 03:01:00",17.4,16.3,0.0,0.0,0,1016.1,3,4,"",93
"2023-08-11 03:02:00",17.4,16.3,0.0,0.0,0,1016.1,2,3,"",93
"2023-08-11 03:03:00",17.4,16.3,0.0,0.0,0,1016.1,3,4,"",93
"2023-08-11 03:04:00",17.4,16.3,0.0,0.0,0,1016.1,4,6,"",93
"2023-08-11 03:05:00",17.5,16.4,0.0,0.0,0,1016.1,2,5,"",93
"2023-08-11 03:06:00",17.6,16.5,0.0,0.0,0,1016.1,2,2,"",93
"2023-08-11 03:07:00",17.6,16.5,0.0,0.0,0,1016.1,3,6,"",93
"2023-08-11 03:08:00",17.7,16.6,0.0,0.0,0,1016.0,1,2,"",93
"2023-08-11 03:09:00",17.7,16.6,0.0,0.0,0,1016.0,1,1,"",93
"2023-08-11 03:10:00",17.7,16.6,0.0,0.0,0,1016.0,2,5,"",93
"2023-08-11 03:11:00",17.7,16.6,0.0,0.0,0,1016.0,2,4,"",93
"2023-08-11 03:12:00",17.7,16.6,0.0,0.0,0,1016.0,1,3,"",93
"2023-08-11 03:13:00",17.7,16.6,0.0,0.0,0,1016.0,1,2,"",93
"2023-08-11 03:14:00",17.7,16.6,0.0,0.0,0,1016.0,2,3,"",93
"2023-08-11 03:15:00",17.7,16.6,0.0,0.0,0,1015.9,2,4,"",93
"2023-08-11 03:16:00",17.7,16.6,0.0,0.0,0,1016.0,3,5,"",93
"2023-08-11 03:17:00",17.8,16.7,0.0,0.0,0,1015.9,1,3,"",93
"2023-08-11 03:18:00",17.8,16.7,0.0,0.0,0,1015.9,1,2,"",93
"2023-08-11 03:19:00",17.8,16.7,0.0,0.0,0,1015.8,1,2,"",93
"2023-08-11 03:20:00",17.8,16.7,0.0,0.0,0,1015.8,2,4,"",93
"2023-08-11 03:21:00",17.8,16.7,0.0,0.0,0,1015.8,1,3,"",93
"2023-08-11 03:22:00",17.9,16.8,0.0,0.0,0,1015.7,3,8,"",93
"2023-08-11 03:23:00",17.9,16.8,0.0,0.0,0,1015.7,1,3,"",93
"2023-08-11 03:24:00",17.9,16.8,0.0,0.0,0,1015.7,1,2,"",93
"2023-08-11 03:25:00",17.9,16.8,0.0,0.0,0,1015.7,1,2,"",93
"2023-08-11 03:26:00",18.0,16.9,0.0,0.0,0,1015.7,1,3,"",93
"2023-08-11 03:27:00",18.1,16.9,0.0,0.0,0,1015.6,1,2,"",93
"2023-08-11 03:28:00",18.1,16.9,0.0,0.0,0,1015.7,2,4,"",93
"2023-08-11 03:29:00",18.1,16.9,0.0,0.0,0,1015.7,2,4,"",93
"2023-08-11 03:30:00",18.1,16.9,0.0,0.0,0,1015.7,2,3,"",93
"2023-08-11 03:31:00",18.1,16.9,0.0,0.0,0,1015.7,1,3,"",93
"2023-08-11 03:32:00",18.1,16.9,0.0,0.0,0,1015.6,1,3,"",93
"2023-08-11 03:33:00",18.1,16.9,0.0,0.0,0,1015.6,1,3,"",93
"2023-08-11 03:34:00",18.2,17.0,0.0,0.0,0,1015.6,1,2,"",93
"2023-08-11 03:35:00",18.2,17.0,0.0,0.0,0,1015.6,1,2,"",93
"2023-08-11 03:36:00",18.2,17.0,0.0,0.0,0,1015.7,2,4,"",93
"2023-08-11 03:37:00",18.2,17.0,0.0,0.0,0,1015.7,1,3,"",93
"2023-08-11 03:38:00",18.2,17.0,0.0,0.0,0,1015.7,0,1,"",93
"2023-08-11 03:39:00",18.2,17.0,0.0,0.0,0,1015.8,0,1,"",93
"2023-08-11 03:40:00",18.2,17.0,0.0,0.0,0,1015.7,1,2,"",93
"2023-08-11 03:41:00",18.2,17.0,0.0,0.0,0,1015.8,1,1,"",93
"2023-08-11 03:42:00",18.2,17.0,0.0,0.0,0,1015.8,1,2,"",93
"2023-08-11 03:43:00",18.2,17.0,0.0,0.0,0,1015.7,0,1,"",93
"2023-08-11 03:44:00",18.2,17.0,0.0,0.0,0,1015.8,1,3,"",93
"2023-08-11 03:45:00",18.3,17.1,0.0,0.0,0,1015.7,1,4,"",93
"2023-08-11 03:46:00",18.3,17.1,0.0,0.0,0,1015.8,1,2,"",93
"2023-08-11 03:47:00",18.3,17.1,0.0,0.0,0,1015.8,0,1,"",93
"2023-08-11 03:48:00",18.3,17.0,0.0,0.0,0,1015.8,1,2,"",92
"2023-08-11 03:49:00",18.3,17.0,0.0,0.0,0,1015.8,1,1,"",92
"2023-08-11 03:50:00",18.3,17.0,0.0,0.0,0,1015.8,1,2,"",92
"2023-08-11 03:51:00",18.2,16.9,0.0,0.0,0,1015.7,2,4,"",92
"2023-08-11 03:52:00",18.2,16.9,0.0,0.0,0,1015.7,1,2,"",92
"2023-08-11 03:53:00",18.3,17.0,0.0,0.0,0,1015.7,1,2,"",92
"2023-08-11 03:54:00",18.3,17.0,0.0,0.0,0,1015.7,0,1,"",92
"2023-08-11 03:55:00",18.3,17.1,0.0,0.0,0,1015.8,1,3,"",93
"2023-08-11 03:56:00",18.3,17.1,0.0,0.0,0,1015.8,1,3,"",93
"2023-08-11 03:57:00",18.4,17.2,0.0,0.0,0,1015.7,1,2,"",93
"2023-08-11 03:58:00",18.4,17.2,0.0,0.0,0,1015.7,1,2,"",93
"2023-08-11 03:59:00",18.4,17.1,0.0,0.0,0,1015.7,1,3,"",92
"2023-08-11 04:00:00",18.4,17.2,0.0,0.0,0,1015.6,1,2,"",93
"2023-08-11 04:01:00",18.4,17.2,0.0,0.0,0,1015.6,1,2,"",93
"2023-08-11 04:02:00",18.4,17.1,0.0,0.0,0,1015.6,1,2,"",92
"2023-08-11 04:03:00",18.4,17.1,0.0,0.0,0,1015.6,1,3,"",92
"2023-08-11 04:04:00",18.4,17.2,0.0,0.0,0,1015.6,1,2,"",93
"2023-08-11 04:05:00",18.4,17.2,0.0,0.0,0,1015.6,1,2,"",93
"2023-08-11 04:06:00",18.4,17.1,0.0,0.0,0,1015.6,1,1,"",92
"2023-08-11 04:07:00",18.4,17.1,0.0,0.0,0,1015.6,1,2,"",92
"2023-08-11 04:08:00",18.5,17.2,0.0,0.0,0,1015.6,1,2,"",92
"2023-08-11 04:09:00",18.5,17.2,0.0,0.0,0,1015.6,0,1,"",92
"2023-08-11 04:10:00",18.4,17.1,0.0,0.0,0,1015.6,1,2,"",92
"2023-08-11 04:11:00",18.4,17.1,0.0,0.0,0,1015.6,1,2,"",92
"2023-08-11 04:12:00",18.4,17.1,0.0,0.0,0,1015.6,1,2,"",92
"2023-08-11 04:13:00",18.4,17.1,0.0,0.0,0,1015.6,0,2,"",92
"2023-08-11 04:14:00",18.4,17.1,0.0,0.0,0,1015.6,1,1,"",92
"2023-08-11 04:15:00",18.4,17.1,0.0,0.0,0,1015.6,1,2,"",92
"2023-08-11 04:16:00",18.4,17.1,0.0,0.0,0,1015.7,1,3,"",92
"2023-08-11 04:17:00",18.4,17.1,0.0,0.0,0,1015.6,1,1,"",92
"2023-08-11 04:18:00",18.4,17.1,0.0,0.0,0,1015.6,1,3,"",92
"2023-08-11 04:19:00",18.4,17.1,0.0,0.0,0,1015.6,1,2,"",92
"2023-08-11 04:20:00",18.4,17.1,0.0,0.0,0,1015.6,2,3,"",92
"2023-08-11 04:21:00",18.6,17.4,0.0,0.0,0,1015.6,2,3,"",93
"2023-08-11 04:22:00",18.6,17.4,0.0,0.0,0,1015.6,2,2,"",93
"2023-08-11 04:23:00",18.6,17.3,0.0,0.0,0,1015.6,2,3,"",92
"2023-08-11 04:24:00",18.6,17.3,0.0,0.0,0,1015.6,1,1,"",92
"2023-08-11 04:25:00",18.6,17.3,0.0,0.0,0,1015.6,1,2,"",92
"2023-08-11 04:26:00",18.6,17.3,0.0,0.0,0,1015.6,0,2,"",92
"2023-08-11 04:27:00",18.6,17.3,0.0,0.0,0,1015.5,1,3,"",92
"2023-08-11 04:28:00",18.6,17.3,0.0,0.0,0,1015.6,2,4,"",92
"2023-08-11 04:29:00",18.6,17.3,0.0,0.0,0,1015.5,1,2,"",92
"2023-08-11 04:30:00",18.6,17.3,0.0,0.0,0,1015.6,1,2,"",92
"2023-08-11 04:31:00",18.6,17.3,0.0,0.0,0,1015.6,1,2,"",92
"2023-08-11 04:32:00",18.6,17.3,0.0,0.0,0,1015.6,2,4,"",92
"2023-08-11 04:33:00",18.6,17.3,0.0,0.0,0,1015.5,1,2,"",92
"2023-08-11 04:34:00",18.6,17.3,0.0,0.0,0,1015.5,2,3,"",92
"2023-08-11 04:35:00",18.6,17.3,0.0,0.0,0,1015.5,1,4,"",92
"2023-08-11 04:36:00",18.6,17.3,0.0,0.0,0,1015.5,1,3,"",92
"2023-08-11 04:37:00",18.6,17.3,0.0,0.0,0,1015.5,1,2,"",92
"2023-08-11 04:38:00",18.6,17.3,0.0,0.0,0,1015.6,1,2,"",92
"2023-08-11 04:39:00",18.6,17.3,0.0,0.0,0,1015.5,1,3,"",92
"2023-08-11 04:40:00",18.5,17.2,0.0,0.0,0,1015.5,2,6,"",92
"2023-08-11 04:41:00",18.5,17.2,0.0,0.0,0,1015.5,1,2,"",92
"2023-08-11 04:42:00",18.5,17.2,0.0,0.0,0,1015.5,1,3,"",92
"2023-08-11 04:43:00",18.5,17.2,0.0,0.0,0,1015.5,2,5,"",92
"2023-08-11 04:44:00",18.5,17.2,0.0,0.0,0,1015.5,2,3,"",92
"2023-08-11 04:45:00",18.5,17.2,0.0,0.0,0,1015.5,2,4,"",92
"2023-08-11 04:46:00",18.4,17.1,0.0,0.0,0,1015.6,1,3,"",92
"2023-08-11 04:47:00",18.5,17.2,0.0,0.0,0,1015.5,1,2,"",92
"2023-08-11 04:48:00",18.5,17.2,0.0,0.0,0,1015.5,3,6,"",92
"2023-08-11 04:49:00",18.4,17.1,0.0,0.0,0,1015.5,2,4,"",92
"2023-08-11 04:50:00",18.4,17.1,0.0,0.0,0,1015.6,2,6,"",92
"2023-08-11 04:51:00",18.4,17.1,0.0,0.0,0,1015.6,2,4,"",92
"2023-08-11 04:52:00",18.4,17.1,0.0,0.0,0,1015.5,1,3,"",92
"2023-08-11 04:53:00",18.5,17.2,0.0,0.0,0,1015.5,2,4,"",92
"2023-08-11 04:54:00",18.5,17.2,0.0,0.0,0,1015.5,1,2,"",92
"2023-08-11 04:55:00",18.5,17.2,0.0,0.0,0,1015.5,1,3,"",92
"2023-08-11 04:56:00",18.5,17.2,0.0,0.0,0,1015.5,2,5,"",92
"2023-08-11 04:57:00",18.5,17.2,0.0,0.0,0,1015.5,2,3,"",92
"2023-08-11 04:58:00",18.4,17.1,0.0,0.0,0,1015.5,2,3,"",92
"2023-08-11 04:59:00",18.5,17.2,0.0,0.0,0,1015.5,2,4,"",92
"2023-08-11 05:00:00",18.5,17.2,0.0,0.0,0,1015.5,3,5,"",92
"2023-08-11 05:01:00",18.5,17.2,0.0,0.0,0,1015.5,1,3,"",92
"2023-08-11 05:02:00",18.5,17.2,0.0,0.0,0,1015.5,2,3,"",92
"2023-08-11 05:03:00",18.5,17.2,0.0,0.0,0,1015.5,2,3,"",92
"2023-08-11 05:04:00",18.5,17.2,0.0,0.0,0,1015.5,1,3,"",92
"2023-08-11 05:05:00",18.4,17.1,0.0,0.0,0,1015.5,1,2,"",92
"2023-08-11 05:06:00",18.4,17.1,0.0,0.0,0,1015.6,1,2,"",92
"2023-08-11 05:07:00",18.4,17.1,0.0,0.0,0,1015.5,2,4,"",92
"2023-08-11 05:08:00",18.4,17.1,0.0,0.0,0,1015.5,2,4,"",92
"2023-08-11 05:09:00",18.4,17.1,0.0,0.0,0,1015.5,2,6,"",92
"2023-08-11 05:10:00",18.4,17.1,0.0,0.0,0,1015.6,1,2,"",92
"2023-08-11 05:11:00",18.4,17.1,0.0,0.0,0,1015.6,1,4,"",92
"2023-08-11 05:12:00",18.4,17.1,0.0,0.0,0,1015.6,3,6,"",92
"2023-08-11 05:13:00",18.4,17.1,0.0,0.0,0,1015.6,2,5,"",92
"2023-08-11 05:14:00",18.4,17.1,0.0,0.0,0,1015.5,2,4,"",92
"2023-08-11 05:15:00",18.4,17.1,0.0,0.0,0,1015.5,3,6,"",92
"2023-08-11 05:16:00",18.4,17.1,0.0,0.0,0,1015.5,1,3,"",92
"2023-08-11 05:17:00",18.4,17.1,0.0,0.0,0,1015.6,4,7,"",92
"2023-08-11 05:18:00",18.4,17.1,0.0,0.0,0,1015.6,2,3,"",92
"2023-08-11 05:19:00",18.4,17.1,0.0,0.0,0,1015.5,1,3,"",92
"2023-08-11 05:20:00",18.4,17.1,0.0,0.0,0,1015.6,1,2,"",92
"2023-08-11 05:21:00",18.4,17.1,0.0,0.0,0,1015.6,2,3,"",92
"2023-08-11 05:22:00",18.4,17.1,0.0,0.0,0,1015.6,3,6,"",92
"2023-08-11 05:23:00",18.4,17.1,0.0,0.0,0,1015.5,3,5,"",92
"2023-08-11 05:24:00",18.3,17.0,0.0,0.0,0,1015.5,2,6,"",92
"2023-08-11 05:25:00",18.3,17.0,0.0,0.0,0,1015.5,1,3,"",92
"2023-08-11 05:26:00",18.3,17.0,0.0,0.0,0,1015.5,2,3,"",92
"2023-08-11 05:27:00",18.4,17.1,0.0,0.0,0,1015.5,1,2,"",92
"2023-08-11 05:28:00",18.3,17.0,0.0,0.0,0,1015.6,1,3,"",92
"2023-08-11 05:29:00",18.3,17.0,0.0,0.0,0,1015.5,2,3,"",92
"2023-08-11 05:30:00",18.3,17.0,0.0,0.0,0,1015.5,2,3,"",92
"2023-08-11 05:31:00",18.3,17.0,0.0,0.0,0,1015.6,2,4,"",92
"2023-08-11 05:32:00",18.3,17.0,0.0,0.0,0,1015.5,3,6,"",92
"2023-08-11 05:33:00",18.3,17.0,0.0,0.0,0,1015.6,2,5,"",92
"2023-08-11 05:34:00",18.3,17.0,0.0,0.0,0,1015.5,1,2,"",92
"2023-08-11 05:35:00",18.3,17.0,0.0,0.0,0,1015.6,1,3,"",92
"2023-08-11 05:36:00",18.3,17.0,0.0,0.0,0,1015.5,1,3,"",92
"2023-08-11 05:37:00",18.3,17.0,0.0,0.0,0,1015.5,0,1,"",92
"2023-08-11 05:38:00",18.3,17.0,0.0,0.0,0,1015.6,1,2,"",92
"2023-08-11 05:39:00",18.2,16.9,0.0,0.0,0,1015.5,1,2,"",92
"2023-08-11 05:40:00",18.2,16.7,0.0,0.0,0,1015.6,2,5,"",91
"2023-08-11 05:41:00",18.2,16.7,0.0,0.0,0,1015.6,2,4,"",91
"2023-08-11 05:42:00",18.2,16.7,0.0,0.0,0,1015.6,1,2,"",91
"2023-08-11 05:43:00",18.2,16.7,0.0,0.0,0,1015.6,2,5,"",91
"2023-08-11 05:44:00",18.3,16.8,0.0,0.0,0,1015.7,1,3,"",91
"2023-08-11 05:45:00",18.2,16.7,0.0,0.0,0,1015.6,2,4,"",91
"2023-08-11 05:46:00",18.2,16.7,0.0,0.0,0,1015.7,2,4,"",91
"2023-08-11 05:47:00",18.3,16.8,0.0,0.0,0,1015.7,1,2,"",91
"2023-08-11 05:48:00",18.2,16.7,0.0,0.0,0,1015.7,2,5,"",91
"2023-08-11 05:49:00",18.2,16.7,0.0,0.0,0,1015.7,2,5,"",91
"2023-08-11 05:50:00",18.2,16.7,0.0,0.0,0,1015.7,1,2,"",91
"2023-08-11 05:51:00",18.2,16.7,0.0,0.0,0,1015.8,0,1,"",91
"2023-08-11 05:52:00",18.2,16.7,0.0,0.0,0,1015.7,1,2,"",91
"2023-08-11 05:53:00",18.2,16.7,0.0,0.0,0,1015.8,1,3,"",91
"2023-08-11 05:54:00",18.2,16.7,0.0,0.0,0,1015.8,3,7,"",91
"2023-08-11 05:55:00",18.2,16.7,0.0,0.0,0,1015.7,3,6,"",91
"2023-08-11 05:56:00",18.2,16.7,0.0,0.0,0,1015.8,2,3,"",91
"2023-08-11 05:57:00",18.2,16.7,0.0,0.0,0,1015.8,1,2,"",91
"2023-08-11 05:58:00",18.2,16.7,0.0,0.0,0,1015.8,1,2,"",91
"2023-08-11 05:59:00",18.2,16.7,0.0,0.0,0,1015.8,0,1,"",91
"2023-08-11 06:00:00",18.2,16.7,0.0,0.0,0,1015.8,1,2,"",91
"2023-08-11 06:01:00",18.2,16.7,0.0,0.0,0,1015.8,1,2,"",91
"2023-08-11 06:02:00",18.2,16.7,0.0,0.0,0,1015.8,1,2,"",91
"2023-08-11 06:03:00",18.2,16.7,0.0,0.0,0,1015.9,2,4,"",91
"2023-08-11 06:04:00",18.2,16.7,0.0,0.0,0,1015.9,1,2,"",91
"2023-08-11 06:05:00",18.2,16.7,0.0,0.0,0,1015.9,1,3,"",91
"2023-08-11 06:06:00",18.2,16.7,0.0,0.0,0,1016.0,1,3,"",91
"2023-08-11 06:07:00",18.2,16.7,0.0,0.0,0,1016.0,1,2,"",91
"2023-08-11 06:08:00",18.2,16.7,0.0,0.0,0,1016.0,1,2,"",91
"2023-08-11 06:09:00",18.2,16.7,0.0,0.0,0,1015.9,2,3,"",91
"2023-08-11 06:10:00",18.1,16.6,0.0,0.0,0,1016.0,1,2,"",91
"2023-08-11 06:11:00",18.2,16.7,0.0,0.0,0,1016.0,2,3,"",91
"2023-08-11 06:12:00",18.2,16.7,0.0,0.0,0,1016.0,2,4,"",91
"2023-08-11 06:13:00",18.2,16.7,0.0,0.0,0,1016.0,1,2,"",91
"2023-08-11 06:14:00",18.2,16.7,0.0,0.0,0,1016.0,1,1,"",91
"2023-08-11 06:15:00",18.2,16.7,0.0,0.0,5,1016.1,1,2,"",91
"2023-08-11 06:16:00",18.2,16.7,0.0,0.0,5,1016.0,1,2,"",91
"2023-08-11 06:17:00",18.2,16.7,0.0,0.0,5,1016.1,1,2,"",91
"2023-08-11 06:18:00",18.2,16.7,0.0,0.0,5,1016.1,1,2,"",91
"2023-08-11 06:19:00",18.2,16.7,0.0,0.0,5,1016.1,1,2,"",91
"2023-08-11 06:20:00",18.2,16.7,0.0,0.0,7,1016.1,0,1,"",91
"2023-08-11 06:21:00",18.2,16.7,0.0,0.0,7,1016.1,1,2,"",91
"2023-08-11 06:22:00",18.2,16.7,0.0,0.0,7,1016.1,1,2,"",91
"2023-08-11 06:23:00",18.2,16.7,0.0,0.0,7,1016.1,1,2,"",91
"2023-08-11 06:24:00",18.2,16.7,0.0,0.0,9,1016.1,0,1,"",91
"2023-08-11 06:25:00",18.2,16.7,0.0,0.0,9,1016.1,2,3,"",91
"2023-08-11 06:26:00",18.2,16.7,0.0,0.0,11,1016.1,1,1,"",91
"2023-08-11 06:27:00",18.2,16.7,0.0,0.0,12,1016.2,1,2,"",91
"2023-08-11 06:28:00",18.1,16.6,0.0,0.0,14,1016.1,2,3,"",91
"2023-08-11 06:29:00",18.1,16.6,0.0,0.0,21,1016.1,2,3,"",91
"2023-08-11 06:30:00",18.1,16.6,0.0,0.0,21,1016.1,1,2,"",91
"2023-08-11 06:31:00",18.2,16.7,0.0,0.0,21,1016.1,0,1,"",91
"2023-08-11 06:32:00",18.2,16.7,0.0,0.0,25,1016.2,1,2,"",91
"2023-08-11 06:33:00",18.2,16.7,0.0,0.0,25,1016.1,1,2,"",91
"2023-08-11 06:34:00",18.2,16.7,0.0,0.0,26,1016.1,0,2,"",91
"2023-08-11 06:35:00",18.2,16.7,0.0,0.0,26,1016.1,1,1,"",91
"2023-08-11 06:36:00",18.2,16.7,0.0,0.0,26,1016.1,1,1,"",91
"2023-08-11 06:37:00",18.1,16.6,0.0,0.0,25,1016.1,1,2,"",91
"2023-08-11 06:38:00",18.1,16.6,0.0,0.0,25,1016.2,0,1,"",91
"2023-08-11 06:39:00",18.1,16.6,0.0,0.0,25,1016.2,1,2,"",91
"2023-08-11 06:40:00",18.1,16.6,0.0,0.0,28,1016.2,2,4,"",91
"2023-08-11 06:41:00",18.1,16.6,0.0,0.0,32,1016.2,2,3,"",91
"2023-08-11 06:42:00",18.1,16.6,0.0,0.0,32,1016.2,2,3,"",91
"2023-08-11 06:43:00",18.1,16.6,0.0,0.0,30,1016.2,1,2,"",91